[[{"header":{"parameterUnit":"m.s-1","parameterCategory":1,"la1":30.2991,"la2":30.254,"lo1":-89.0895,"lo2":-89.0444,"dy":0.0017,"dx":0.0017,"nx":28,"ny":28,"refTime":"2023-09-22T21:00:00:Z","depth":0,"parameterNumber":2,"parameterNumberName":"U-component_of_WINDS"},"data":[0,0,0,0,0,0,0,0,0,0,0,0,0,0,0,0,0,0,0,0,0,0,0,0,0,0,0,0,0,0,0,0,0,0,0,0,0,0,0,0,0,0,0,0,0,0,0,0,0,0,0,0,0,0,0,0,0,0,-0.909,-0.909,0,-0.9077,-0.9076,-0.9076,-0.9053,-0.9052,-0.9052,-0.9051,-0.9037,-0.9037,-0.9038,0,0,0,0,0,0,0,0,0,0,0,0,0,-0.9095,-0.9095,-0.909,-0.909,-0.909,-0.9077,-0.9076,-0.9076,-0.9053,-0.9052,-0.9052,-0.9051,-0.9037,-0.9037,-0.9038,0,0,0,0,0,0,0,0,0,0,0,0,0,-0.9089,-0.9095,-0.909,-0.9076,-0.9075,-0.9077,-0.9076,-0.9076,-0.9053,-0.9052,-0.9052,-0.9051,-0.9037,-0.9037,-0.9038,-0.9051,0,0,-0.9038,-0.9038,0,0,0,0,0,0,0,0,-0.9089,-0.9088,-0.9078,-0.9077,-0.9076,-0.9066,-0.9073,-0.9068,-0.9053,-0.9061,-0.9051,-0.9051,-0.9047,-0.9047,-0.9045,-0.9051,-0.905,-0.9038,-0.9038,-0.9038,-0.9038,0,0,0,0,0,0,0,-0.9089,-0.9089,-0.9085,-0.9078,-0.9077,-0.9071,-0.9069,-0.9072,-0.9058,-0.9061,-0.9059,-0.9058,-0.9046,-0.9045,-0.9045,-0.905,-0.9038,-0.9038,-0.9038,-0.9038,-0.9066,-0.9067,0,0,0,0,0,0,-0.9092,-0.9089,-0.9085,-0.9084,-0.9081,-0.9071,-0.907,-0.907,-0.9058,-0.9056,-0.9058,-0.9057,-0.9046,-0.9045,-0.9044,-0.906,-0.9038,-0.9038,-0.9038,-0.9065,-0.9066,-0.9067,0,0,0,0,0,0,-0.9092,-0.9092,-0.9085,-0.9086,-0.9085,-0.9072,-0.9072,-0.907,-0.9069,-0.9056,-0.9054,-0.906,-0.9045,-0.9044,-0.905,-0.9059,-0.9038,-0.9038,-0.9064,-0.9066,-0.9067,-0.9091,0,0,0,0,0,0,-0.9092,-0.9092,-0.9097,-0.9087,-0.9085,-0.9091,-0.9073,-0.907,-0.9069,-0.9067,-0.9057,-0.9055,-0.9045,-0.905,-0.905,-0.9059,-0.9038,-0.9064,-0.9065,-0.9066,-0.909,-0.9093,-0.9096,0,0,0,0,0,-0.9093,-0.9104,-0.9097,-0.9097,-0.9091,-0.9092,-0.9091,-0.9079,-0.907,-0.9075,-0.9067,-0.9055,-0.9058,-0.9051,-0.905,-0.906,-0.9063,-0.9065,-0.9066,-0.9088,-0.9092,-0.9096,0,0,0,0,0,0,-0.9116,-0.9103,-0.9095,-0.9103,-0.9099,-0.9088,-0.9094,-0.9084,-0.9082,-0.908,-0.9065,-0.9063,-0.9071,-0.9066,-0.9057,-0.9073,-0.9059,-0.906,-0.9076,-0.908,-0.9083,-0.9084,-0.9038,0,0,0,0,0,-0.9122,-0.9124,-0.9112,-0.9121,-0.9119,-0.9107,-0.9107,-0.9098,-0.9093,-0.9091,-0.9083,-0.9079,-0.9078,-0.9079,-0.9078,-0.9089,-0.9087,-0.9095,-0.9098,-0.9101,-0.9103,-0.9109,-0.9112,-0.9072,-0.9072,-0.9072,0,0,-0.9134,-0.9128,-0.9129,-0.9125,-0.9121,-0.9123,-0.9105,-0.9108,-0.911,-0.9091,-0.9096,-0.909,-0.9084,-0.9093,-0.9096,-0.9089,-0.9113,-0.9103,-0.9105,-0.9106,-0.9111,-0.9115,-0.9118,-0.9073,-0.9073,-0.9073,0,0,-0.9159,-0.9153,-0.916,-0.9156,-0.915,-0.9142,-0.9144,-0.9134,-0.913,-0.9135,-0.9121,-0.9123,-0.9123,-0.9119,-0.9117,-0.9141,-0.913,-0.9141,-0.9158,-0.9164,-0.9167,-0.917,-0.9179,-0.9182,-0.9143,-0.9143,-0.9143,0,-0.9175,-0.9178,-0.9165,-0.9169,-0.9168,-0.9151,-0.9158,-0.9155,-0.9149,-0.9148,-0.914,-0.9141,-0.9135,-0.9143,-0.9149,-0.9148,-0.915,-0.9142,-0.9168,-0.917,-0.9173,-0.9181,-0.9184,-0.9144,-0.9144,-0.9144,-0.9144,0,-0.9199,-0.9201,-0.9207,-0.9202,-0.9201,-0.9207,-0.9195,-0.9196,-0.9188,-0.9181,-0.9186,-0.9179,-0.9177,-0.9178,-0.917,-0.9185,-0.9181,-0.9171,-0.9156,-0.9178,-0.9186,-0.9189,-0.9146,-0.9146,-0.9145,-0.9145,0,0,-0.9237,-0.9225,-0.9227,-0.9225,-0.9217,-0.9218,-0.9223,-0.9222,-0.9223,-0.9219,-0.9223,-0.9224,-0.9215,-0.9213,-0.9204,-0.9209,-0.9229,-0.9198,-0.9198,-0.9205,-0.9246,-0.9254,-0.9258,-0.9222,-0.9223,-0.9223,-0.9247,0,-0.926,-0.9267,-0.9256,-0.9267,-0.9269,-0.9253,-0.9258,-0.9254,-0.9247,-0.9248,-0.9241,-0.9242,-0.923,-0.9229,-0.9233,-0.9226,-0.9237,-0.9224,-0.9226,-0.9226,-0.9228,-0.9262,-0.927,-0.9293,-0.925,-0.925,-0.925,0,-0.9287,-0.9285,-0.9296,-0.9288,-0.9288,-0.9292,-0.929,-0.9291,-0.9286,-0.9281,-0.9279,-0.9269,-0.9274,-0.926,-0.9266,-0.9257,-0.9258,-0.9254,-0.9255,-0.9255,-0.924,-0.9263,-0.9299,-0.9303,-0.9255,-0.9254,-0.9254,0,-0.9315,-0.9315,-0.9321,-0.9319,-0.931,-0.9313,-0.931,-0.9304,-0.9304,-0.9302,-0.9301,-0.93,-0.9299,-0.9299,-0.9288,-0.9279,-0.9296,-0.9281,-0.9292,-0.9293,-0.9297,-0.9296,-0.9334,-0.9296,-0.9296,-0.9296,-0.9296,0,-0.9341,-0.9349,-0.9333,-0.9337,-0.9345,-0.9333,-0.9341,-0.9335,-0.9331,-0.9333,-0.932,-0.9323,-0.9309,-0.931,-0.9302,-0.9309,-0.9309,-0.9305,-0.9303,-0.9307,-0.9307,-0.9307,-0.9305,-0.9297,-0.9297,-0.9297,-0.9297,0,-0.9373,-0.9363,-0.937,-0.936,-0.9358,-0.9364,-0.9356,-0.936,-0.9353,-0.9357,-0.9357,-0.9346,-0.9347,-0.9337,-0.9336,-0.933,-0.9341,-0.9336,-0.9343,-0.9342,-0.9353,-0.9353,-0.9392,-0.9397,-0.9356,-0.9356,-0.9357,0,-0.9391,-0.9397,-0.9388,-0.9389,-0.9386,-0.9388,-0.9387,-0.9375,-0.9376,-0.9371,-0.9375,-0.9375,-0.9375,-0.9378,-0.937,-0.9369,-0.9364,-0.9378,-0.9364,-0.9368,-0.9365,-0.9365,-0.9365,-0.9381,-0.9381,-0.9382,-0.9382,0,-0.9424,-0.9419,-0.9419,-0.9418,-0.9418,-0.9417,-0.9414,-0.9416,-0.9403,-0.9404,-0.9405,-0.9405,-0.9404,-0.9405,-0.9403,-0.9399,-0.9389,-0.9387,-0.9389,-0.9393,-0.9397,-0.9396,-0.9352,-0.9386,-0.9386,-0.9385,-0.9385,-0.9385,-0.945,-0.9454,-0.9449,-0.945,-0.9447,-0.9445,-0.9448,-0.9441,-0.9442,-0.9441,-0.9433,-0.9436,-0.9431,-0.9428,-0.9425,-0.9427,-0.942,-0.9424,-0.9425,-0.9426,-0.9429,-0.9397,-0.9427,-0.9427,-0.9426,-0.9426,-0.9426,0,-0.9483,-0.9479,-0.948,-0.9477,-0.9478,-0.9468,-0.9465,-0.9466,-0.9469,-0.9465,-0.9465,-0.9467,-0.9467,-0.9459,-0.9459,-0.9462,-0.9458,-0.9463,-0.9463,-0.9462,-0.9434,-0.9432,-0.9467,-0.9467,-0.9467,-0.9467,-0.9467,-0.9467,-0.95,-0.9507,-0.9501,-0.9507,-0.9502,-0.9505,-0.9504,-0.9502,-0.9499,-0.9502,-0.9503,-0.9497,-0.9492,-0.9492,-0.9492,-0.9489,-0.949,-0.9497,-0.9493,-0.9468,-0.9464,-0.946,-0.9458,-0.9497,-0.9497,-0.9521,-0.9521,-0.9521]},{"header":{"parameterUnit":"m.s-1","parameterCategory":1,"la1":30.2991,"la2":30.254,"lo1":-89.0895,"lo2":-89.0444,"dy":0.0017,"dx":0.0017,"nx":28,"ny":28,"refTime":"2023-09-22T21:00:00:Z","depth":0,"parameterNumber":3,"parameterNumberName":"V-component_of_WINDS"},"data":[0,0,0,0,0,0,0,0,0,0,0,0,0,0,0,0,0,0,0,0,0,0,0,0,0,0,0,0,0,0,0,0,0,0,0,0,0,0,0,0,0,0,0,0,0,0,0,0,0,0,0,0,0,0,0,0,0,0,3.2447,3.2447,0,3.2432,3.2432,3.2432,3.237,3.2369,3.2367,3.2366,3.2352,3.2352,3.2353,0,0,0,0,0,0,0,0,0,0,0,0,0,3.2422,3.2422,3.2447,3.2447,3.2446,3.2432,3.2432,3.2432,3.237,3.2369,3.2367,3.2365,3.2351,3.2352,3.2354,0,0,0,0,0,0,0,0,0,0,0,0,0,3.2422,3.2423,3.2447,3.2414,3.2411,3.2432,3.2432,3.2432,3.2371,3.2369,3.2366,3.2364,3.2351,3.2352,3.2354,3.2405,0,0,3.2358,3.2359,0,0,0,0,0,0,0,0,3.2422,3.2423,3.2419,3.2416,3.2413,3.2401,3.2418,3.2423,3.2371,3.2386,3.2366,3.2363,3.237,3.2369,3.2371,3.2405,3.2404,3.2358,3.2359,3.236,3.236,0,0,0,0,0,0,0,3.2422,3.2424,3.2441,3.2419,3.2415,3.24,3.2398,3.2418,3.239,3.2385,3.238,3.2379,3.2368,3.237,3.2371,3.2404,3.2358,3.2359,3.236,3.2361,3.2477,3.248,0,0,0,0,0,0,3.2427,3.2424,3.2441,3.244,3.2412,3.2402,3.24,3.2407,3.239,3.2385,3.2381,3.2376,3.2369,3.2369,3.237,3.2428,3.236,3.2361,3.2362,3.2475,3.2478,3.248,0,0,0,0,0,0,3.2427,3.2429,3.2442,3.2431,3.2431,3.2405,3.2413,3.2408,3.241,3.2387,3.2382,3.2389,3.2367,3.2368,3.2397,3.2426,3.2362,3.2363,3.2473,3.2476,3.2479,3.2545,0,0,0,0,0,0,3.2426,3.2429,3.2449,3.2432,3.2432,3.2469,3.2415,3.2409,3.2413,3.2406,3.2393,3.2389,3.2366,3.2395,3.2398,3.2427,3.2364,3.247,3.2474,3.2478,3.254,3.255,3.2559,0,0,0,0,0,3.2426,3.2468,3.245,3.2453,3.2456,3.2471,3.2471,3.2443,3.2415,3.2434,3.2419,3.2389,3.2423,3.2398,3.2401,3.2431,3.2468,3.2473,3.2478,3.2536,3.2548,3.2559,0,0,0,0,0,0,3.249,3.2466,3.2445,3.2484,3.248,3.2461,3.2484,3.2458,3.2462,3.2456,3.2422,3.2419,3.2453,3.2445,3.2418,3.248,3.244,3.2446,3.2483,3.2495,3.2504,3.2504,3.2365,0,0,0,0,0,3.2509,3.2523,3.2501,3.2537,3.2536,3.2511,3.2516,3.2495,3.249,3.2488,3.2475,3.2471,3.248,3.2488,3.2495,3.2539,3.2535,3.2561,3.2571,3.2579,3.2584,3.2605,3.2616,3.2497,3.2497,3.2497,0,0,3.2547,3.2536,3.2547,3.255,3.2544,3.2559,3.251,3.2528,3.2538,3.2491,3.2516,3.2507,3.25,3.2536,3.2552,3.2531,3.2616,3.2585,3.2592,3.2592,3.2611,3.2622,3.2632,3.25,3.25,3.2499,0,0,3.2625,3.2619,3.2647,3.2642,3.2634,3.2617,3.2624,3.2609,3.26,3.2626,3.259,3.2602,3.262,3.2616,3.2616,3.2692,3.2664,3.2696,3.2745,3.2766,3.2775,3.2783,3.2808,3.2818,3.2702,3.2702,3.2702,0,3.2674,3.2695,3.2665,3.2685,3.2687,3.2644,3.2672,3.267,3.2665,3.2667,3.2645,3.2665,3.2658,3.2691,3.271,3.2712,3.2718,3.2697,3.2776,3.2784,3.2791,3.2815,3.2825,3.2705,3.2705,3.2705,3.2704,0,3.2755,3.277,3.2794,3.2789,3.2794,3.2819,3.2792,3.2801,3.278,3.2765,3.279,3.278,3.2784,3.2791,3.2771,3.2822,3.2809,3.2782,3.2741,3.2807,3.2828,3.2837,3.2711,3.271,3.2708,3.2707,0,0,3.2872,3.285,3.2859,3.2856,3.2844,3.2855,3.2878,3.2881,3.2888,3.2887,3.2904,3.292,3.2894,3.2894,3.2874,3.2892,3.2951,3.2862,3.2862,3.2878,3.3004,3.3024,3.3035,3.2933,3.2935,3.2936,3.3004,0,3.2944,3.298,3.2953,3.2994,3.3007,3.2966,3.2985,3.298,3.2967,3.2976,3.2961,3.2972,3.2939,3.2938,3.2955,3.294,3.2976,3.2935,3.2947,3.2948,3.2948,3.3046,3.3067,3.3132,3.3013,3.3014,3.3015,0,3.3033,3.3034,3.3076,3.306,3.3064,3.3082,3.3082,3.3092,3.3085,3.3074,3.3074,3.3049,3.3069,3.303,3.3057,3.303,3.3034,3.3027,3.3029,3.3027,3.2984,3.3046,3.3152,3.3161,3.3029,3.3028,3.3027,0,3.3111,3.3124,3.315,3.3149,3.3131,3.3144,3.3138,3.3129,3.3132,3.3133,3.3135,3.3139,3.314,3.3144,3.3119,3.3094,3.3149,3.3109,3.3139,3.314,3.3151,3.3151,3.3258,3.3157,3.3157,3.3157,3.3157,0,3.3194,3.322,3.3184,3.32,3.3228,3.3198,3.3227,3.3216,3.3209,3.3221,3.3188,3.3201,3.3169,3.3178,3.3159,3.3184,3.3185,3.3176,3.317,3.3178,3.3179,3.3178,3.3173,3.316,3.3159,3.3158,3.3158,0,3.3286,3.3263,3.3288,3.3269,3.3265,3.3287,3.3271,3.3284,3.3269,3.3286,3.3288,3.3264,3.3273,3.3249,3.3256,3.3243,3.3277,3.3265,3.3279,3.3275,3.3306,3.3303,3.3415,3.3428,3.3321,3.3323,3.3323,0,3.3339,3.3358,3.3341,3.3347,3.3342,3.3352,3.3355,3.3326,3.3331,3.3324,3.3338,3.3345,3.3348,3.3365,3.3348,3.3352,3.3339,3.3378,3.3339,3.3346,3.3337,3.3335,3.3337,3.3386,3.3387,3.3388,3.3389,0,3.3434,3.3422,3.3428,3.3429,3.3434,3.3434,3.3431,3.3438,3.3407,3.3414,3.3423,3.3426,3.3431,3.3438,3.3438,3.3431,3.3405,3.3401,3.3408,3.3415,3.3422,3.3417,3.3299,3.3399,3.3398,3.3397,3.3396,3.3396,3.3507,3.3521,3.3511,3.3518,3.3514,3.3512,3.3523,3.3509,3.3516,3.3518,3.3501,3.3513,3.3505,3.3502,3.3498,3.3507,3.3489,3.35,3.3502,3.3505,3.3509,3.3422,3.3508,3.3507,3.3507,3.3507,3.3506,0,3.3599,3.3591,3.3598,3.3595,3.36,3.3575,3.3571,3.3577,3.3588,3.3583,3.3586,3.3596,3.3602,3.3586,3.3589,3.3599,3.3587,3.3601,3.3599,3.3597,3.3526,3.3519,3.3611,3.3611,3.3611,3.3611,3.3611,3.361,3.3648,3.367,3.3657,3.3677,3.3668,3.3679,3.3679,3.3677,3.3672,3.3684,3.3689,3.3678,3.3668,3.367,3.3674,3.3669,3.3671,3.3689,3.368,3.3613,3.3603,3.3593,3.3586,3.369,3.369,3.375,3.3751,3.3751]}]]